Regional Weather Roundup
Issued by NWS

Home | Current Version | Previous Version | Text Only | Print | Product List | Glossary Off
Versions: 1 2 3 4 5 6 7 8 9 10 11 12 13 14 15 16 17 18 19 20 21 22 23 24 25 26 27 28 29 30 31 32 33 34 35 36 37 38 39 40 41 42 43 44 45 46 47 48 49 50

000
ASUS43 KMPX 271510
RWRMN
WEATHER ROUNDUP FOR MINNESOTA
NATIONAL WEATHER SERVICE TWIN CITIES/CHANHASSEN MN
1000 AM CDT WED AUG 27 2014


NOTE: "FAIR" INDICATES FEW OR NO CLOUDS BELOW 12,000 FEET WITH NO
SIGNIFICANT WEATHER AND/OR OBSTRUCTIONS TO VISIBILITY. N/A MEANS
CURRENT SKY AND/OR WEATHER CONDITIONS ARE NOT AVAILABLE.

MNZ060>063-068>070-271600-
   Twin Cities Metro

CITY           SKY/WX    TMP DP  RH WIND       PRES   REMARKS
TWIN CITIES    MOSUNNY   67  54  63 E7        30.22R
ST PAUL        SUNNY     67  54  63 VRB6      30.23R
CRYSTAL        SUNNY     68  55  63 E7        30.21R
BLAINE         MOSUNNY   66  55  68 E6        30.22R
LAKEVILLE      SUNNY     64  55  72 E8        30.22S
EDEN PRAIRIE   SUNNY     67  55  65 E7        30.21R
SOUTH ST PAUL  MOSUNNY   67  53  61 NE5       30.22R
LAKE ELMO      FAIR      64  55  72 NE6       30.23R
$$
MNZ001>005-007-008-013>017-022>024-027-028-271600-
   Northwest Minnesota

CITY           SKY/WX    TMP DP  RH WIND       PRES   REMARKS
BEMIDJI        SUNNY     61  54  78 W5        30.21S
HALLOCK        SUNNY     57  55  94 S6        30.17R
ROSEAU         MOSUNNY   54  48  82 CALM      30.18S
WARROAD        FOG       52  48  87 CALM      30.19S VSB 1/2
THIEF RVR FALL SUNNY     61  55  82 SW5       30.19S
CROOKSTON      SUNNY     59  55  88 SW6       30.19F
FOSSTON        SUNNY     59  55  88 SW6       30.21S
DETROIT LAKES  MOSUNNY   63  54  72 CALM      30.22R
MOORHEAD       SUNNY     64  61  88 CALM      30.20S
PARK RAPIDS    SUNNY     62  54  74 VRB3      30.21S
MAHNOMEN       FAIR      58  56  92 CALM      30.21S
$$
MNZ006-009>011-018-025>026-271600-
   North Central Minnesota

CITY           SKY/WX    TMP DP  RH WIND       PRES   REMARKS
BAUDETTE       PTSUNNY   55  52  89 SW5       30.19R
FLAG ISLAND    SUNNY     63  55  77 CALM      30.15S
INTL FALLS     CLOUDY    58  52  80 CALM      30.19S
WASKISH        SUNNY     63  57  82 SW8       30.19S
BIG FORK       MOSUNNY   61  54  77 CALM      30.21S
LONGVILLE      MOSUNNY   63  57  82 CALM      30.21R
GRAND RAPIDS   MOSUNNY   61  52  72 S3        30.22R
CRANE LAKE     SUNNY     57  48  72 CALM      30.22S
ORR            SUNNY     59  50  72 W3        30.18F
COOK           SUNNY     55  55 100 CALM      30.21F
WALKER         CLOUDY    58  55  91 CALM      30.22R
$$
MNZ012-019>021-037-271600-
   Northeast Minnesota

CITY           SKY/WX    TMP DP  RH WIND       PRES   REMARKS
DULUTH         SUNNY     62  50  64 NW3       30.22R
ELY            SUNNY     57  46  67 NW6       30.21S
HIBBING        SUNNY     62  51  67 VRB3      30.22S
EVELETH        SUNNY     59  50  72 NW6       30.22S
DULUTH HARBOR  SUNNY     63  55  77 E3        30.23R
TWO HARBORS    SUNNY     59  48  67 W3        30.20S
SILVER BAY     SUNNY     59  52  77 W6        30.20S
GRAND MARAIS     N/A     65  43  44 VRB5      30.18S
G MARAIS ARPRT MOSUNNY   57  43  58 NW7       30.21R
$$
MNZ029>031-032-039>041-046>048-054>057-064-271600-
   West Central Minnesota

CITY           SKY/WX    TMP DP  RH WIND       PRES   REMARKS
FERGUS FALLS   SUNNY     64  54  68 S5        30.20S
WHEATON        SUNNY     63  57  82 SE6       30.21S
MORRIS         SUNNY     66  57  72 SE6       30.19S
ALEXANDRIA     SUNNY     63  57  81 SE7       30.23R
ELBOW LAKE     PTSUNNY   63  57  80 SE5       30.21R
WADENA         PTSUNNY   63  55  77 E5        30.21S
GLENWOOD       MOSUNNY   64  57  77 SE7       30.23R
APPLETON       SUNNY     68  57  68 E6        30.20R
BENSON         SUNNY     66  57  72 S6        30.21R
ORTONVILLE     SUNNY     64  57  77 E3        30.20R
MADISON        SUNNY     68  61  77 SE10      30.21R
WILLMAR        FAIR      66  57  72 SE7       30.22R
$$
MNZ033>034-036-042>043-049>051-058-059-271600-
   Central Minnesota

CITY           SKY/WX    TMP DP  RH WIND       PRES   REMARKS
ST CLOUD       SUNNY     66  55  67 S7        30.22R
SAUK CENTRE    FAIR      63  56  79 SE3       30.23R
PAYNESVILLE    MOSUNNY   61  54  78 NE7       30.22S
AITKIN         MOSUNNY   64  55  72 CALM      30.21S
PINE RIVER     MOSUNNY   63  55  77 CALM      30.24S
BRAINERD       SUNNY     62  55  77 CALM      30.22S
STAPLES        PTSUNNY   63  55  77 CALM      30.22R
LONG PRAIRIE   FAIR      63  55  77 E3        30.22S
LITTLE FALLS   PTSUNNY   61  55  82 E3        30.22S
LITCHFIELD     SUNNY     66  59  77 SE10      30.23R
BUFFALO        SUNNY     65  53  65 E8        30.23R
MAPLE LAKE     PTSUNNY   66  58  75 E5        30.23R
$$
MNZ037-044-045-052-053-271600-
   East Central Minnesota

CITY           SKY/WX    TMP DP  RH WIND       PRES   REMARKS
PRINCETON      SUNNY     64  57  77 E5        30.21F
MORA           SUNNY     63  54  72 E3        30.24S
CAMBRIDGE      SUNNY     66  54  63 E3        30.21R
RUSH CITY      SUNNY     62  55  77 CALM      30.23S
MOOSE LAKE     SUNNY     61  52  72 CALM      30.21S
HINCKLEY       FAIR      63  54  72 E3        30.23S
CLOQUET        SUNNY     61  50  67 CALM      30.22S
MCGREGOR       SUNNY     61  54  77 CALM      30.23R
$$
MNZ071>073-080-081-089-090-097-098-271600-
   Southwest Minnesota

CITY           SKY/WX    TMP DP  RH WIND       PRES   REMARKS
MONTEVIDEO     SUNNY     70  59  68 S6        30.22R
GRANITE FALLS  MOSUNNY   65  57  75 SE8       30.23R
CANBY          MOSUNNY   63  59  86 SE8       30.23R
MARSHALL       PTSUNNY   64  55  72 S6        30.21R
REDWOOD FALLS  PTSUNNY   67  57  70 E9        30.22R
OLIVIA         MOSUNNY   68  55  64 SE10      30.21R
PIPESTONE      CLOUDY    63  57  82 SE5       30.21S
WINDOM         PTSUNNY   64  57  77 E5        30.22S
WORTHINGTON    CLOUDY    63  59  88 E6        30.22S
JACKSON        CLOUDY    64  55  72 E5        30.22S
TRACY          PTSUNNY   66  60  81 SE5       30.22R
SLAYTON        CLOUDY    63  58  86 CALM      30.22F
$$
MNZ065>067-074>077-082>085-091>093-271600-
   South Central Minnesota

CITY           SKY/WX    TMP DP  RH WIND       PRES   REMARKS
MANKATO        PTSUNNY   66  54  63 SE9       30.23R
NEW ULM        PTSUNNY   66  59  77 SE5       30.23R
ST JAMES       PTSUNNY   70  59  68 E3        30.22S
FAIRMONT       CLOUDY    63  55  77 E5        30.21R
GLENCOE        MOSUNNY   67  55  65 E7        30.22R
FARIBAULT      PTSUNNY   70  54  56 E3        30.23R
OWATONNA       CLOUDY    64  55  72 E5        30.23R
WASECA         CLOUDY    63  52  67 E7        30.24R
ALBERT LEA     PTSUNNY   66  57  72 E7        30.21S
$$
MNZ078>079-086>088-094>096-271600-
   Southeast Minnesota

CITY           SKY/WX    TMP DP  RH WIND       PRES   REMARKS
ROCHESTER      CLOUDY    66  56  70 NE7       30.24R
RED WING       MOSUNNY   70  55  60 SE7       30.21R
STANTON        FAIR      67  56  67 E5        30.21R
DODGE CENTER   CLOUDY    64  57  77 E7        30.23R
WINONA         CLOUDY    70  59  68 E3        30.21S
AUSTIN         PTSUNNY   66  57  72 E5        30.21S
PRESTON        MOSUNNY   66  61  83 CALM      30.23R
$$
ABBREVIATIONS USED IN REMARKS
   TC - TEMPERATURES IN CELSIUS
  WCI - WIND CHILL INDEX
   HX - HEAT INDEX
  VSB - VISIBILITY
$$



USA.gov is the U.S. government's official web portal to all federal, state and local government web resources and services.